Temperature
17 18 18 17 17 17 16 16 14 14 14 13 12 12 13 14 14 13 13 13 12 12 11 11 10 10 9 9 9 9 9 9 9 10 10 10 10 10 11 11 11 11 11 11
18 18 17 17 17 17 17 16 15 14 13 13 14 13 13 13 13 13 13 12 11 11 10 10 9 8 8 7 7 7 7 7 7 7 8 8 9 9 10 10 10 11 11 11
16 17 17 16 16 16 16 15 14 13 12 12 11 11 12 13 13 12 12 11 10 10 9 8 7 7 6 6 5 5 5 5 5 6 6 6 7 7 8 9 9 10 10 11
15 17 18 16 17 17 16 14 13 13 12 12 12 13 13 13 12 11 11 10 9 8 8 7 6 5 5 4 4 4 4 4 4 4 4 4 5 5 6 6 7 8 9 10
14 16 16 16 17 16 15 13 13 12 11 12 13 11 12 12 11 10 10 9 8 7 6 6 5 4 4 4 4 4 4 4 4 4 4 3 3 4 4 5 6 7 8 9
14 17 16 16 17 16 15 13 13 13 11 12 11 8 9 11 10 10 9 8 7 6 6 5 4 4 4 4 4 3 3 4 4 3 3 3 3 3 3 4 4 5 6 7
14 15 15 15 16 15 14 13 15 14 13 13 10 10 11 10 9 8 8 7 7 6 5 5 4 4 4 4 4 4 4 4 4 3 3 3 3 3 3 3 4 4 5 6
12 15 15 16 14 13 14 16 15 14 13 13 12 11 10 9 8 8 7 7 7 6 6 5 4 4 4 4 4 4 4 4 4 3 3 3 3 3 3 3 3 4 4 5
13 14 15 16 16 17 16 15 14 14 13 12 11 10 9 8 8 8 7 7 6 6 6 6 5 5 4 5 4 4 4 4 4 3 3 3 3 3 3 3 3 4 4 4
12 13 15 16 16 16 15 15 14 13 13 11 10 9 8 8 8 8 8 7 6 6 6 6 6 5 5 5 5 4 4 4 4 3 3 3 3 3 3 3 3 3 4 4
13 13 15 15 16 16 15 14 14 13 12 10 9 9 8 8 8 8 8 7 7 6 6 6 6 6 6 5 5 5 4 4 4 4 4 4 3 3 3 4 4 4 4 4
14 16 14 17 17 16 15 14 13 12 11 10 9 8 8 8 7 7 7 7 7 7 6 6 6 6 6 6 6 5 5 4 4 4 4 4 4 4 4 4 4 4 4 4
19 19 18 17 16 15 15 14 13 12 11 10 9 8 8 7 7 7 8 8 7 7 6 6 6 6 6 6 6 6 5 5 5 4 4 4 4 4 4 4 4 4 5 5
19 18 17 17 16 15 14 14 13 12 10 9 9 8 7 7 7 7 8 8 7 7 7 6 6 6 6 6 6 6 6 5 5 5 4 4 4 4 5 5 5 5 5 5
19 18 18 17 16 15 14 13 12 11 10 9 9 8 7 7 7 7 7 8 8 7 7 7 7 7 6 6 6 6 6 6 6 5 5 5 5 5 5 5 5 5 5 5
19 17 17 16 16 15 14 13 12 11 10 9 9 8 7 7 7 7 7 7 7 7 7 7 7 7 7 6 6 6 6 6 6 6 6 5 5 5 5 5 5 5 5 5
18 17 17 16 16 15 14 13 12 11 10 9 8 8 7 7 7 8 8 8 7 7 7 6 7 7 7 7 7 6 6 6 6 6 6 6 6 6 6 6 6 6 6 6
19 19 18 17 16 15 14 13 11 10 10 9 8 8 7 7 7 7 7 7 8 8 7 7 7 7 7 7 7 7 7 6 6 6 6 6 6 6 6 6 6 6 6 6
18 18 17 16 15 15 14 13 11 10 10 9 8 8 7 7 6 6 6 6 6 7 8 8 8 7 7 7 7 7 7 7 7 6 6 6 7 7 7 6 6 6 6 6
18 18 17 16 15 14 14 13 12 11 10 9 9 8 8 7 7 6 6 5 5 5 6 7 7 7 7 8 7 7 7 7 7 7 6 6 7 7 7 6 6 6 6 6
18 17 17 16 15 14 14 13 12 11 10 9 9 8 8 7 6 6 5 5 5 5 6 6 6 7 7 7 7 7 7 7 7 7 6 6 6 7 7 6 6 6 6 6
18 17 17 16 15 14 14 13 12 11 10 9 9 8 8 7 6 6 4 4 4 4 5 5 5 6 6 7 8 8 7 7 7 7 6 6 6 6 6 6 7 6 6 6
18 17 16 16 15 14 14 13 12 11 10 9 9 8 7 6 5 5 4 4 4 4 4 4 4 5 6 7 8 8 8 7 7 7 6 6 6 6 6 6 7 7 7 7
17 17 16 15 15 14 13 13 12 11 10 9 9 8 7 6 6 5 4 4 4 4 4 4 4 5 6 7 7 8 8 8 8 7 7 7 6 6 6 6 7 7 7 8
17 16 15 15 15 14 14 13 12 10 9 9 9 8 7 6 5 5 4 4 4 4 4 4 4 4 5 6 7 7 8 8 8 8 7 7 7 7 7 7 7 7 8 8
16 16 16 16 15 14 13 13 12 10 9 9 8 7 6 5 5 4 4 4 4 4 4 4 4 4 4 5 6 7 8 8 9 9 8 8 7 7 7 7 7 8 8 8
16 16 16 15 15 14 13 12 12 10 9 9 9 7 6 5 5 4 4 5 5 4 4 4 4 4 4 4 5 6 7 8 8 9 9 9 9 9 8 8 8 8 9 9
Wind_Speed
1 2 5 4 4 4 3 3 5 7 8 8 7 9 9 10 11 11 12 12 12 11 11 11 11 11 11 12 12 12 12 13 14 14 13 13 12 12 12 11 12 12 11 11
2 4 5 3 3 2 1 2 5 6 7 7 8 7 9 12 13 12 12 12 13 13 13 13 12 11 11 10 10 10 11 13 13 13 13 12 12 12 11 11 11 11 12 12
3 3 1 3 3 2 4 5 5 6 7 9 11 10 10 11 12 13 14 14 14 14 14 14 13 12 12 10 11 12 12 13 13 12 13 12 13 12 12 11 10 11 12 12
2 3 3 6 3 3 5 6 7 8 9 10 12 10 10 12 10 11 12 11 12 13 13 12 11 12 12 13 14 15 15 15 14 13 14 13 13 13 12 10 9 9 10 11
3 1 5 3 4 3 4 8 8 8 10 9 9 8 7 8 6 8 10 11 13 14 15 11 12 12 13 14 15 16 16 16 16 15 15 14 14 14 12 10 9 8 7 8
4 1 5 7 3 1 2 7 7 8 9 9 7 7 8 7 8 10 11 11 13 13 13 12 12 12 14 15 16 16 16 16 16 15 15 15 14 14 12 11 10 8 7 6
3 4 7 6 2 3 2 7 4 5 7 8 6 8 8 10 9 10 12 14 13 13 12 12 12 12 14 15 15 16 16 17 16 15 14 14 13 13 12 11 10 9 7 6
4 3 7 6 7 6 9 5 4 5 7 8 8 9 9 10 11 12 13 12 12 12 13 12 11 12 15 16 16 16 16 16 15 14 13 12 11 11 10 9 9 8 7 7
8 8 6 7 9 7 6 5 5 5 7 6 6 7 8 9 10 12 12 12 12 13 14 13 10 11 15 17 17 17 16 15 14 13 11 10 10 10 8 6 6 6 6 7
4 8 7 8 6 5 5 7 6 6 6 4 7 9 10 10 10 11 11 12 12 13 14 14 13 13 14 16 16 16 15 14 12 11 10 9 8 6 6 5 5 5 6 7
6 7 4 8 9 7 5 6 5 4 4 6 8 9 9 9 11 11 12 11 11 13 14 14 14 15 15 15 15 15 13 12 11 10 9 8 7 6 6 6 6 6 6 6
9 8 8 8 8 8 8 8 7 6 5 6 6 8 9 9 10 11 13 12 13 13 14 14 14 15 15 14 14 14 12 10 9 8 8 7 7 7 7 8 9 11 12 9
8 7 8 5 5 7 8 8 6 7 7 6 6 7 8 8 9 11 12 12 13 14 15 15 14 15 14 13 14 14 12 10 7 7 7 7 7 7 7 5 3 2 4 7
6 7 5 6 7 8 7 5 4 4 5 6 6 7 8 9 10 12 12 13 13 14 14 14 14 14 13 13 13 13 12 10 8 6 5 6 6 6 6 5 4 2 4 6
10 9 8 6 7 6 5 4 4 5 6 7 6 7 9 10 11 13 12 12 13 13 14 14 15 15 14 13 13 13 11 8 7 5 5 4 5 5 5 4 3 1 2 5
10 8 6 7 9 8 6 6 6 7 6 7 7 8 9 10 11 12 11 11 13 14 15 15 15 16 16 14 13 10 8 12 10 5 5 4 4 4 5 4 3 2 2 2
10 10 9 8 9 8 8 7 7 7 6 7 8 8 9 10 11 12 12 12 12 12 12 13 16 18 17 15 13 9 7 8 10 7 4 4 3 4 4 4 3 2 2 2
12 12 10 9 8 9 8 7 6 6 6 6 7 7 8 10 11 13 14 15 14 12 10 14 17 19 18 17 14 9 6 5 4 5 4 4 3 3 3 2 2 2 2 2
8 9 10 9 9 8 7 7 6 6 5 4 5 7 8 9 10 11 12 13 13 15 17 18 23 18 17 19 19 10 7 5 4 3 3 4 4 3 3 2 2 2 2 2
8 8 9 9 8 7 7 6 6 6 4 3 4 6 8 9 9 11 11 9 7 9 14 18 17 15 16 17 20 11 9 5 3 3 2 2 3 3 3 3 3 3 2 1
10 9 10 10 9 8 8 8 7 7 4 3 4 6 7 8 9 10 10 10 10 12 14 15 13 13 14 16 16 11 10 7 4 2 1 1 1 2 3 3 3 3 2 2
10 11 11 10 9 8 7 7 7 6 5 3 4 5 6 7 8 9 8 7 10 15 13 10 11 15 19 17 11 11 10 9 6 3 1 0 0 1 2 2 2 2 2 3
9 10 10 11 10 7 6 6 7 6 5 4 3 4 4 6 6 6 8 8 10 15 13 10 15 20 19 12 10 10 11 10 9 7 3 1 1 1 1 1 1 1 2 2
9 10 10 9 7 8 8 7 6 5 4 3 2 3 3 5 5 4 7 11 13 15 11 12 16 18 14 9 10 10 10 10 10 9 7 3 0 1 1 1 1 1 2 2
10 10 11 11 11 10 10 9 7 6 5 3 2 2 2 2 4 7 8 10 13 13 11 13 15 15 11 9 10 10 9 9 10 9 8 6 3 0 1 2 2 2 2 1
11 12 13 13 11 9 9 9 8 6 5 4 2 1 2 3 5 6 7 9 12 12 11 10 11 11 10 10 10 10 9 10 9 9 9 8 7 4 1 2 3 3 2 2
10 9 7 6 6 8 10 10 10 8 7 6 4 1 1 3 4 6 7 8 9 9 10 10 10 10 10 10 10 10 9 9 9 8 8 8 7 6 5 3 1 2 3 3
Wind_Direction
95 82 99 86 61 58 90 171 212 260 274 266 275 279 281 283 287 292 293 292 291 291 291 290 290 290 291 292 296 298 297 293 288 283 280 278 275 270 264 252 244 235 229 229
84 82 94 84 42 37 36 253 250 271 279 257 272 287 287 286 288 290 294 300 303 303 303 303 304 307 309 305 306 306 303 298 294 290 288 283 281 279 273 264 252 238 230 227
191 213 323 269 216 232 260 235 227 244 256 284 293 292 282 285 295 299 303 305 305 306 306 309 313 315 312 306 309 307 304 302 299 297 295 293 293 290 283 275 262 246 237 227
111 63 251 256 237 222 255 246 212 228 256 272 272 277 278 282 290 293 296 300 304 305 306 307 307 309 308 312 313 312 309 306 305 304 302 300 297 291 284 279 270 255 242 229
94 344 292 266 230 218 256 271 219 233 265 278 292 315 296 287 291 289 297 302 303 303 305 304 307 310 314 316 314 311 308 305 303 299 296 294 291 288 285 279 270 259 248 228
107 181 255 242 222 199 169 287 236 232 272 289 319 321 292 295 310 304 303 301 302 304 303 306 311 315 317 316 313 309 306 301 297 292 289 288 285 283 279 274 268 261 250 230
152 226 262 240 199 90 201 264 250 244 267 280 263 249 275 302 302 296 296 300 303 306 309 311 315 317 316 314 311 307 304 300 295 289 285 283 280 278 275 270 264 256 247 239
164 208 264 205 147 185 223 244 263 264 265 270 271 280 292 298 297 300 304 305 308 312 314 314 317 320 317 314 310 308 306 304 300 293 288 288 283 282 275 268 256 245 239 242
190 213 239 198 200 216 197 226 247 248 266 278 282 288 293 290 293 300 303 306 312 315 316 317 320 320 317 314 313 313 313 313 310 305 296 288 285 285 278 263 250 236 232 240
241 261 243 233 237 242 211 218 240 254 272 268 273 280 286 289 296 304 305 311 315 317 318 320 323 322 316 315 315 316 320 323 322 319 314 303 294 286 277 266 254 240 232 233
248 272 271 252 230 222 219 227 250 263 254 258 267 277 282 293 302 306 309 312 315 315 316 318 322 320 319 319 321 323 325 329 331 329 324 317 309 294 278 262 252 248 242 230
220 219 196 234 225 198 205 225 234 238 251 259 261 275 291 299 300 305 308 312 316 316 316 317 319 317 318 322 325 326 328 331 331 331 331 326 322 317 289 270 269 254 246 239
208 196 188 220 202 190 201 220 225 226 243 262 276 282 292 297 299 305 309 314 318 317 314 313 315 316 319 323 324 324 324 323 320 324 327 327 326 323 322 321 328 333 291 244
188 146 179 206 202 200 198 203 207 237 254 261 273 288 295 295 302 310 314 318 318 316 314 312 315 318 320 319 318 318 318 316 316 307 313 318 319 317 316 318 325 1 36 38
195 188 197 200 188 183 182 185 214 257 265 274 276 286 296 305 310 312 314 318 320 319 319 320 321 322 322 317 311 310 311 309 304 300 304 309 314 317 324 333 343 41 64 52
188 196 196 182 189 196 196 209 229 254 261 267 280 291 299 303 305 307 310 319 324 322 321 323 323 323 322 318 311 304 298 307 318 311 312 321 330 333 340 351 8 46 73 77
162 190 197 203 207 206 209 215 224 243 255 267 280 296 308 315 319 322 325 328 322 313 315 324 326 324 324 323 318 305 291 297 315 321 317 315 323 332 339 349 11 51 64 94
190 187 178 180 188 201 215 224 232 238 244 261 290 305 313 319 321 322 325 327 327 326 331 335 331 328 327 329 329 315 294 282 294 308 316 318 320 324 332 349 31 70 82 111
186 179 178 177 174 179 197 215 225 225 236 267 295 303 307 309 312 316 320 325 332 336 337 336 331 331 330 332 334 324 315 295 289 299 312 328 347 3 7 14 43 85 112 133
179 171 164 164 169 179 195 205 201 202 220 257 290 304 312 316 320 322 322 319 322 329 327 327 330 332 332 331 333 330 331 323 306 298 310 348 8 21 27 31 43 69 101 126
179 168 165 172 185 196 198 191 183 193 210 245 281 297 306 313 321 325 325 328 333 334 331 328 337 338 334 332 328 335 342 342 331 309 291 317 20 39 48 52 56 62 66 68
180 173 177 181 187 198 196 183 178 181 196 239 275 294 310 319 325 323 313 312 323 328 332 332 341 340 340 335 336 341 346 349 347 332 308 255 160 82 61 58 57 56 59 61
179 177 180 188 192 194 180 178 180 182 199 225 258 290 307 310 312 318 327 326 327 328 331 330 335 339 341 343 343 346 349 352 351 349 336 285 204 174 134 88 80 80 74 71
176 179 189 191 172 169 182 190 187 193 203 215 237 283 306 315 315 305 314 318 326 329 331 328 331 339 342 350 352 353 353 352 349 347 346 343 233 178 169 153 146 139 122 108
184 189 192 191 193 197 190 177 176 191 205 213 241 300 308 296 301 316 323 328 333 335 336 335 337 342 351 356 360 359 356 355 351 346 347 350 355 189 177 174 177 173 162 151
197 206 210 206 199 185 175 173 180 191 197 201 207 279 317 323 322 326 332 337 340 340 342 343 347 350 357 360 3 3 1 358 357 355 352 352 354 358 328 196 192 191 190 190
224 222 213 193 177 173 174 177 181 187 193 185 174 188 324 334 335 337 341 347 349 348 347 347 351 355 358 1 2 4 5 5 2 358 354 352 351 350 349 337 227 180 174 174
Height
1527 1524 1524 1528 1529 1529 1531 1533 1540 1536 1532 1526 1524 1521 1517 1513 1509 1506 1502 1498 1494 1489 1484 1479 1474 1468 1463 1457 1452 1447 1442 1437 1433 1430 1426 1424 1422 1420 1418 1417 1416 1417 1419 1421
1528 1526 1527 1530 1530 1529 1530 1530 1531 1531 1529 1521 1519 1517 1513 1509 1505 1500 1496 1492 1488 1483 1477 1471 1465 1459 1453 1448 1443 1438 1433 1428 1423 1419 1415 1412 1410 1409 1408 1406 1406 1407 1409 1412
1537 1529 1531 1536 1531 1529 1529 1528 1529 1532 1527 1519 1516 1513 1510 1505 1500 1497 1493 1488 1483 1477 1471 1464 1458 1452 1446 1440 1434 1429 1424 1419 1414 1410 1405 1402 1399 1398 1397 1396 1396 1396 1398 1402
1538 1534 1539 1535 1524 1524 1525 1524 1524 1523 1521 1517 1513 1509 1506 1502 1498 1494 1489 1483 1477 1471 1465 1459 1453 1446 1440 1433 1427 1421 1416 1410 1405 1401 1396 1392 1389 1387 1386 1386 1386 1387 1388 1392
1542 1539 1538 1530 1523 1523 1525 1525 1519 1519 1516 1513 1509 1505 1502 1499 1495 1491 1486 1480 1473 1466 1459 1453 1447 1441 1434 1428 1422 1415 1409 1404 1398 1393 1388 1384 1380 1378 1377 1377 1377 1378 1380 1383
1541 1539 1540 1529 1520 1520 1523 1524 1516 1515 1513 1510 1507 1507 1499 1495 1491 1487 1482 1475 1468 1460 1454 1447 1442 1435 1429 1422 1416 1410 1403 1397 1391 1386 1381 1377 1373 1370 1368 1368 1368 1370 1372 1375
1540 1540 1533 1520 1518 1520 1529 1524 1513 1511 1509 1507 1505 1503 1497 1492 1488 1482 1476 1469 1462 1455 1448 1442 1436 1430 1424 1417 1411 1404 1397 1390 1384 1378 1373 1369 1366 1363 1361 1360 1360 1362 1365 1368
1542 1539 1533 1514 1516 1519 1517 1510 1509 1508 1506 1503 1500 1497 1493 1488 1483 1477 1470 1463 1457 1450 1443 1437 1431 1425 1419 1413 1406 1399 1392 1385 1378 1372 1367 1363 1359 1356 1354 1353 1353 1355 1358 1361
1526 1523 1511 1509 1509 1509 1508 1507 1506 1505 1502 1500 1497 1493 1489 1484 1478 1472 1466 1459 1453 1446 1439 1433 1427 1422 1415 1409 1402 1395 1387 1380 1373 1367 1362 1358 1355 1352 1350 1349 1349 1350 1352 1355
1516 1510 1506 1506 1506 1506 1505 1504 1504 1502 1500 1497 1494 1490 1486 1480 1474 1467 1461 1455 1449 1442 1436 1429 1423 1418 1412 1406 1399 1392 1384 1377 1370 1365 1360 1356 1352 1350 1348 1347 1346 1347 1348 1350
1511 1506 1504 1502 1502 1502 1502 1501 1501 1499 1497 1494 1491 1487 1482 1476 1469 1464 1458 1452 1445 1439 1432 1426 1420 1414 1409 1403 1396 1389 1383 1376 1369 1364 1359 1355 1351 1348 1346 1345 1344 1344 1345 1346
1506 1498 1499 1497 1497 1498 1499 1498 1497 1496 1493 1491 1488 1483 1478 1472 1466 1460 1454 1448 1442 1437 1430 1423 1417 1411 1406 1400 1394 1388 1381 1375 1369 1364 1360 1356 1352 1348 1346 1344 1343 1342 1342 1343
1493 1494 1494 1494 1494 1495 1495 1495 1494 1493 1490 1488 1484 1480 1475 1468 1462 1457 1451 1446 1440 1434 1428 1421 1414 1408 1403 1398 1393 1387 1381 1375 1370 1365 1361 1357 1353 1349 1346 1344 1342 1340 1340 1341
1490 1491 1491 1491 1491 1492 1492 1492 1491 1490 1487 1484 1481 1477 1471 1465 1459 1454 1448 1443 1438 1432 1425 1419 1412 1406 1400 1395 1390 1385 1380 1375 1370 1366 1361 1358 1354 1351 1347 1344 1342 1341 1340 1340
1485 1486 1487 1487 1488 1489 1489 1489 1488 1486 1484 1481 1478 1473 1468 1461 1455 1450 1446 1440 1435 1429 1423 1417 1410 1404 1397 1392 1387 1382 1378 1374 1369 1365 1361 1358 1355 1352 1349 1346 1344 1342 1341 1342
1479 1482 1483 1484 1485 1486 1486 1486 1485 1483 1480 1477 1474 1469 1464 1458 1453 1447 1442 1437 1432 1426 1420 1414 1408 1401 1394 1388 1382 1378 1374 1371 1368 1364 1361 1358 1355 1353 1350 1348 1346 1345 1344 1345
1475 1476 1478 1479 1481 1482 1483 1483 1481 1479 1477 1474 1470 1465 1460 1454 1449 1444 1439 1434 1429 1424 1419 1412 1406 1399 1393 1386 1380 1375 1371 1368 1366 1363 1361 1358 1356 1354 1352 1350 1349 1348 1348 1348
1469 1472 1475 1476 1478 1479 1480 1479 1477 1475 1473 1471 1467 1462 1457 1451 1446 1441 1436 1431 1425 1421 1416 1410 1404 1398 1391 1385 1379 1373 1369 1365 1364 1362 1360 1359 1357 1355 1353 1352 1351 1350 1350 1350
1467 1470 1472 1474 1475 1476 1476 1475 1473 1472 1470 1467 1463 1459 1454 1449 1444 1439 1434 1429 1423 1417 1412 1407 1401 1396 1390 1384 1379 1373 1368 1365 1362 1361 1360 1359 1358 1356 1355 1353 1352 1351 1351 1351
1465 1468 1470 1471 1472 1472 1471 1470 1469 1468 1466 1464 1460 1455 1451 1446 1442 1437 1432 1427 1423 1417 1411 1405 1399 1394 1389 1384 1379 1374 1369 1365 1362 1361 1360 1360 1359 1358 1356 1355 1354 1353 1353 1353
1461 1464 1466 1467 1468 1468 1467 1466 1465 1464 1462 1460 1457 1452 1448 1444 1440 1435 1430 1425 1421 1415 1410 1404 1398 1393 1388 1384 1380 1375 1370 1366 1363 1361 1360 1359 1359 1359 1359 1358 1357 1356 1356 1355
1457 1460 1462 1463 1464 1464 1463 1462 1462 1461 1459 1457 1454 1450 1445 1441 1437 1433 1429 1425 1419 1414 1408 1403 1397 1392 1388 1385 1381 1377 1372 1368 1365 1362 1360 1359 1360 1360 1360 1360 1360 1360 1359 1359
1453 1455 1458 1459 1459 1460 1460 1460 1459 1458 1456 1454 1451 1447 1443 1440 1435 1431 1427 1423 1418 1414 1408 1403 1398 1393 1389 1385 1381 1377 1374 1370 1366 1363 1361 1360 1359 1360 1361 1362 1362 1363 1363 1364
1449 1452 1454 1454 1454 1454 1455 1456 1456 1455 1453 1451 1448 1445 1441 1438 1435 1431 1427 1423 1419 1414 1409 1404 1398 1393 1389 1385 1382 1378 1375 1372 1369 1366 1363 1361 1360 1360 1361 1362 1364 1365 1366 1368
1444 1446 1448 1448 1446 1446 1449 1451 1451 1450 1449 1447 1445 1442 1439 1436 1433 1430 1427 1423 1419 1414 1410 1404 1399 1394 1390 1386 1383 1380 1377 1374 1371 1369 1366 1364 1363 1362 1363 1363 1365 1366 1368 1370
1438 1439 1439 1438 1439 1440 1442 1444 1445 1445 1445 1443 1441 1439 1437 1435 1432 1429 1426 1422 1418 1414 1410 1405 1400 1396 1392 1388 1384 1381 1379 1376 1374 1371 1369 1367 1366 1365 1365 1366 1367 1368 1370 1372
1433 1432 1432 1431 1431 1432 1434 1436 1438 1439 1439 1438 1437 1436 1435 1433 1430 1428 1424 1421 1417 1414 1410 1406 1402 1398 1393 1389 1386 1383 1380 1377 1375 1374 1372 1370 1369 1368 1368 1368 1370 1371 1373 1375